AEZ148R LIRN-LIPK

Flight info

Callsign AEZ148R
Flight time 0h 49m
Altitude 18000
Route ALAXI7J/24 ALAXI L995 PEMAR Z810 GOTMO/N0428F340 DCT ASDOR
Aircraft E75L/M-SDE3GILORVW/S

Departure

Time 2026-05-06 21:35
Airport Naples International Airport (LIRN)

Arrival

Time 2026-05-06 22:24
Airport Forlì-Luigi Ridolfi International Airport (LIPK)
Time Latitude Longitude Altitude Speed Heading
2026-05-06 20:52 40.87868 14.28130 292 ft 0 kts 142°
2026-05-06 21:18 40.87868 14.28129 292 ft 1 kts 143°
2026-05-06 21:19 40.87880 14.28116 292 ft 2 kts 141°
2026-05-06 21:19 40.87892 14.28105 292 ft 2 kts 141°
2026-05-06 21:19 40.87902 14.28094 292 ft 0 kts 142°
2026-05-06 21:19 40.87911 14.28084 292 ft 2 kts 121°
2026-05-06 21:20 40.87915 14.28065 292 ft 2 kts 94°
2026-05-06 21:20 40.87913 14.28046 292 ft 2 kts 66°
2026-05-06 21:20 40.87909 14.28037 292 ft 1 kts 49°
2026-05-06 21:20 40.87906 14.28031 292 ft 0 kts 50°
2026-05-06 21:25 40.87912 14.28043 292 ft 3 kts 51°
2026-05-06 21:26 40.87940 14.28091 291 ft 8 kts 53°
2026-05-06 21:26 40.87979 14.28163 291 ft 7 kts 61°
2026-05-06 21:26 40.87991 14.28204 290 ft 6 kts 345°
2026-05-06 21:26 40.88046 14.28192 290 ft 7 kts 40°
2026-05-06 21:27 40.88058 14.28222 289 ft 4 kts 54°
2026-05-06 21:27 40.88061 14.28227 289 ft 5 kts 56°
2026-05-06 21:27 40.88069 14.28275 288 ft 7 kts 99°
2026-05-06 21:28 40.88062 14.28339 287 ft 11 kts 97°
2026-05-06 21:28 40.88051 14.28455 285 ft 13 kts 96°
2026-05-06 21:28 40.88041 14.28578 284 ft 13 kts 78°
2026-05-06 21:28 40.88094 14.28691 282 ft 15 kts 52°
2026-05-06 21:29 40.88168 14.28819 276 ft 18 kts 52°
2026-05-06 21:29 40.88239 14.28942 274 ft 16 kts 53°
2026-05-06 21:29 40.88317 14.29077 269 ft 20 kts 51°
2026-05-06 21:29 40.88409 14.29236 264 ft 23 kts 54°
2026-05-06 21:30 40.88513 14.29416 259 ft 26 kts 53°
2026-05-06 21:30 40.88627 14.29617 253 ft 28 kts 50°
2026-05-06 21:30 40.88753 14.29836 245 ft 31 kts 54°
2026-05-06 21:30 40.88871 14.30038 240 ft 23 kts 50°
2026-05-06 21:31 40.88965 14.30201 235 ft 22 kts 52°
2026-05-06 21:31 40.89024 14.30303 234 ft 4 kts 53°
2026-05-06 21:31 40.89051 14.30349 234 ft 4 kts 51°
2026-05-06 21:31 40.89056 14.30357 233 ft 3 kts 52°
2026-05-06 21:32 40.89084 14.30407 232 ft 10 kts 52°
2026-05-06 21:32 40.89206 14.30364 232 ft 12 kts 262°
2026-05-06 21:32 40.89195 14.30332 233 ft 0 kts 236°
2026-05-06 21:34 40.89179 14.30302 233 ft 25 kts 236°
2026-05-06 21:34 40.88961 14.29844 242 ft 90 kts 238°
2026-05-06 21:34 40.88530 14.28931 270 ft 141 kts 239°
2026-05-06 21:35 40.88001 14.27738 529 ft 157 kts 239°
2026-05-06 21:35 40.87328 14.26540 992 ft 172 kts 222°
2026-05-06 21:35 40.86261 14.25536 1372 ft 200 kts 210°
2026-05-06 21:35 40.85096 14.24738 1900 ft 177 kts 207°
2026-05-06 21:36 40.83986 14.24016 1960 ft 193 kts 204°
2026-05-06 21:36 40.82624 14.23667 2270 ft 194 kts 180°
2026-05-06 21:36 40.81307 14.24013 2371 ft 196 kts 153°
2026-05-06 21:36 40.80241 14.25130 2555 ft 199 kts 126°
2026-05-06 21:37 40.79663 14.26794 2752 ft 201 kts 105°
2026-05-06 21:37 40.79012 14.28311 2629 ft 191 kts 144°
2026-05-06 21:37 40.77786 14.28773 2441 ft 181 kts 192°
2026-05-06 21:37 40.76646 14.28419 2564 ft 157 kts 188°
2026-05-06 21:38 40.75503 14.28270 2621 ft 182 kts 182°
2026-05-06 21:38 40.74160 14.28222 2971 ft 208 kts 180°
2026-05-06 21:38 40.72691 14.28252 3786 ft 212 kts 171°
2026-05-06 21:38 40.71455 14.29182 4791 ft 211 kts 128°
2026-05-06 21:39 40.71059 14.31014 5636 ft 220 kts 85°
2026-05-06 21:39 40.71461 14.33020 5994 ft 246 kts 76°
2026-05-06 21:39 40.71942 14.35351 6189 ft 278 kts 79°
2026-05-06 21:39 40.72393 14.37907 6600 ft 297 kts 80°
2026-05-06 21:40 40.73243 14.40468 7242 ft 311 kts 50°
2026-05-06 21:40 40.74969 14.42124 7994 ft 310 kts 17°
2026-05-06 21:40 40.77028 14.42402 8774 ft 298 kts 343°
2026-05-06 21:40 40.79021 14.41843 9589 ft 295 kts 341°
2026-05-06 21:41 40.81030 14.41300 10485 ft 291 kts 341°
2026-05-06 21:41 40.82676 14.40897 12749 ft 216 kts 338°
2026-05-06 21:41 40.83937 14.40585 13677 ft 186 kts 336°
2026-05-06 21:41 40.85354 14.40198 12673 ft 229 kts 338°
2026-05-06 21:42 40.86912 14.39761 12466 ft 221 kts 339°
2026-05-06 21:42 40.88316 14.39435 12771 ft 190 kts 338°
2026-05-06 21:42 40.89740 14.39046 12211 ft 244 kts 337°
2026-05-06 21:42 40.91515 14.38603 12442 ft 267 kts 351°
2026-05-06 21:43 40.93449 14.38989 12642 ft 298 kts 11°
2026-05-06 21:43 40.95528 14.39178 12807 ft 302 kts 348°
2026-05-06 21:43 40.97496 14.38650 13639 ft 284 kts 327°
2026-05-06 21:43 40.99021 14.37008 13698 ft 288 kts 296°
2026-05-06 21:44 40.99839 14.34528 13833 ft 302 kts 284°
2026-05-06 21:44 41.00586 14.31862 14163 ft 317 kts 288°
2026-05-06 21:44 41.01755 14.29350 14732 ft 329 kts 303°
2026-05-06 21:44 41.03303 14.27106 15394 ft 333 kts 309°
2026-05-06 21:45 41.05014 14.24975 16051 ft 336 kts 312°
2026-05-06 21:45 41.06768 14.22925 16665 ft 338 kts 314°
2026-05-06 21:45 41.08535 14.20909 17224 ft 341 kts 314°
2026-05-06 21:45 41.10356 14.18854 17766 ft 344 kts 315°
2026-05-06 21:46 41.12194 14.16785 18302 ft 348 kts 315°
2026-05-06 21:46 41.14039 14.14711 18824 ft 351 kts 315°
2026-05-06 21:46 41.15905 14.12613 19319 ft 355 kts 315°
2026-05-06 21:46 41.17804 14.10476 19827 ft 358 kts 315°
2026-05-06 21:47 41.19694 14.08347 20327 ft 361 kts 315°
2026-05-06 21:47 41.21632 14.06163 20826 ft 364 kts 315°
2026-05-06 21:47 41.23569 14.03978 21294 ft 367 kts 315°
2026-05-06 21:47 41.25516 14.01780 21739 ft 371 kts 315°
2026-05-06 21:48 41.27496 13.99543 22192 ft 374 kts 315°
2026-05-06 21:48 41.29486 13.97275 22659 ft 375 kts 311°
2026-05-06 21:48 41.31295 13.94803 23118 ft 375 kts 308°
2026-05-06 21:48 41.33072 13.92297 23567 ft 377 kts 308°
2026-05-06 21:49 41.34881 13.89746 23999 ft 380 kts 308°
2026-05-06 21:49 41.36691 13.87190 24427 ft 383 kts 308°
2026-05-06 21:49 41.38537 13.84582 24843 ft 386 kts 308°
2026-05-06 21:49 41.40366 13.81994 25241 ft 389 kts 308°
2026-05-06 21:50 41.42247 13.79333 25652 ft 392 kts 308°
2026-05-06 21:50 41.44111 13.76694 26063 ft 395 kts 308°
2026-05-06 21:50 41.45976 13.74049 26456 ft 398 kts 308°
2026-05-06 21:50 41.47892 13.71329 26850 ft 400 kts 308°
2026-05-06 21:51 41.49788 13.68636 27243 ft 403 kts 308°
2026-05-06 21:51 41.51698 13.65920 27614 ft 405 kts 308°
2026-05-06 21:51 41.53644 13.63151 27986 ft 408 kts 307°
2026-05-06 21:51 41.55579 13.60395 28394 ft 410 kts 307°
2026-05-06 21:52 41.57513 13.57638 28771 ft 412 kts 307°
2026-05-06 21:52 41.59467 13.54848 29118 ft 415 kts 307°
2026-05-06 21:52 41.61441 13.52032 29445 ft 418 kts 307°
2026-05-06 21:52 41.63447 13.49164 29768 ft 421 kts 307°
2026-05-06 21:53 41.65439 13.46313 30133 ft 422 kts 307°
2026-05-06 21:53 41.67447 13.43436 30500 ft 424 kts 307°
2026-05-06 21:53 41.69455 13.40556 30844 ft 426 kts 307°
2026-05-06 21:53 41.71462 13.37675 31152 ft 429 kts 307°
2026-05-06 21:54 41.73503 13.34742 31469 ft 431 kts 306°
2026-05-06 21:54 41.75555 13.31785 31844 ft 432 kts 306°
2026-05-06 21:54 41.77584 13.28858 32224 ft 433 kts 306°
2026-05-06 21:54 41.79645 13.25883 32622 ft 433 kts 306°
2026-05-06 21:55 41.81677 13.22946 33038 ft 433 kts 306°
2026-05-06 21:55 41.83721 13.19985 33451 ft 433 kts 306°
2026-05-06 21:55 41.85777 13.17001 33921 ft 429 kts 306°
2026-05-06 21:55 41.87756 13.14127 34006 ft 423 kts 305°
2026-05-06 21:56 41.91833 13.08193 34038 ft 439 kts 306°
2026-05-06 21:56 41.96032 13.02085 34045 ft 455 kts 306°
2026-05-06 21:57 42.00722 12.96232 34047 ft 471 kts 320°
2026-05-06 21:57 42.06687 12.92317 34037 ft 483 kts 336°
2026-05-06 21:58 42.13374 12.90807 34030 ft 496 kts 356°
2026-05-06 21:58 42.20314 12.91607 34025 ft 497 kts 358°
2026-05-06 21:59 42.27198 12.91674 34019 ft 496 kts 355°
2026-05-06 21:59 42.34103 12.91607 34018 ft 493 kts 355°
2026-05-06 22:00 42.40984 12.91532 34015 ft 494 kts 355°
2026-05-06 22:00 42.47816 12.91457 34019 ft 493 kts 355°
2026-05-06 22:01 42.54617 12.91382 34015 ft 486 kts 355°
2026-05-06 22:01 42.61447 12.91306 34010 ft 487 kts 355°
2026-05-06 22:02 42.68234 12.91231 34012 ft 487 kts 355°
2026-05-06 22:02 42.74995 12.91156 34008 ft 485 kts 354°
2026-05-06 22:03 42.81765 12.91080 34007 ft 484 kts 355°
2026-05-06 22:03 42.88508 12.91005 34013 ft 486 kts 355°
2026-05-06 22:04 42.91839 12.90969 33993 ft 473 kts 355°
2026-05-06 22:04 42.95054 12.90935 33900 ft 453 kts 354°
2026-05-06 22:04 42.98260 12.90896 33708 ft 461 kts 354°
2026-05-06 22:04 43.01511 12.90856 33191 ft 481 kts 355°
2026-05-06 22:05 43.04869 12.90820 32603 ft 488 kts 355°
2026-05-06 22:05 43.08278 12.90783 31647 ft 490 kts 355°
2026-05-06 22:05 43.11704 12.90745 30187 ft 496 kts 354°
2026-05-06 22:05 43.15102 12.90694 28458 ft 491 kts 353°
2026-05-06 22:06 43.18419 12.90185 26905 ft 470 kts 344°
2026-05-06 22:06 43.21426 12.89022 25485 ft 451 kts 337°
2026-05-06 22:06 43.24262 12.87336 24103 ft 438 kts 327°
2026-05-06 22:06 43.26833 12.85270 23364 ft 419 kts 324°
2026-05-06 22:07 43.29254 12.83218 22837 ft 406 kts 323°
2026-05-06 22:07 43.31627 12.81169 22385 ft 393 kts 323°
2026-05-06 22:07 43.33899 12.79192 21966 ft 391 kts 323°
2026-05-06 22:07 43.36193 12.77191 21536 ft 392 kts 323°
2026-05-06 22:08 43.38515 12.75165 21101 ft 392 kts 323°
2026-05-06 22:08 43.40812 12.73157 20665 ft 391 kts 324°
2026-05-06 22:08 43.43089 12.71167 20233 ft 389 kts 324°
2026-05-06 22:08 43.45381 12.69161 19805 ft 386 kts 323°
2026-05-06 22:09 43.47639 12.67182 19374 ft 384 kts 323°
2026-05-06 22:09 43.49869 12.65226 18948 ft 382 kts 323°
2026-05-06 22:09 43.52119 12.63251 18526 ft 380 kts 323°
2026-05-06 22:09 43.54327 12.61311 18106 ft 378 kts 324°
2026-05-06 22:10 43.56535 12.59370 17693 ft 376 kts 324°
2026-05-06 22:10 43.58741 12.57428 17278 ft 373 kts 324°
2026-05-06 22:10 43.60907 12.55520 16864 ft 371 kts 324°
2026-05-06 22:10 43.63093 12.53593 16450 ft 368 kts 324°
2026-05-06 22:11 43.65233 12.51705 16044 ft 366 kts 324°
2026-05-06 22:11 43.67377 12.49810 15638 ft 363 kts 324°
2026-05-06 22:11 43.69491 12.47943 15237 ft 360 kts 324°
2026-05-06 22:11 43.71588 12.46087 14839 ft 357 kts 324°
2026-05-06 22:12 43.73665 12.44249 14447 ft 355 kts 324°
2026-05-06 22:12 43.75745 12.42404 14053 ft 350 kts 324°
2026-05-06 22:12 43.77761 12.40615 13671 ft 347 kts 323°
2026-05-06 22:12 43.79619 12.38463 13312 ft 342 kts 313°
2026-05-06 22:13 43.81324 12.36194 12939 ft 340 kts 313°
2026-05-06 22:13 43.82990 12.33977 12565 ft 329 kts 312°
2026-05-06 22:13 43.84626 12.31796 12205 ft 317 kts 312°
2026-05-06 22:13 43.86185 12.29716 11858 ft 306 kts 312°
2026-05-06 22:14 43.87684 12.27715 11528 ft 296 kts 311°
2026-05-06 22:14 43.89125 12.25791 11137 ft 275 kts 311°
2026-05-06 22:14 43.90451 12.24020 10937 ft 257 kts 311°
2026-05-06 22:14 43.91713 12.22328 10644 ft 251 kts 311°
2026-05-06 22:15 43.92968 12.20649 10368 ft 246 kts 311°
2026-05-06 22:15 43.94292 12.19196 10086 ft 247 kts 335°
2026-05-06 22:15 43.95976 12.18999 9803 ft 252 kts 12°
2026-05-06 22:15 43.97605 12.19959 9214 ft 257 kts 25°
2026-05-06 22:16 43.99203 12.21073 8680 ft 254 kts 25°
2026-05-06 22:16 44.00668 12.22432 8201 ft 259 kts 52°
2026-05-06 22:16 44.01342 12.24684 7738 ft 257 kts 89°
2026-05-06 22:16 44.00973 12.27060 7065 ft 251 kts 122°
2026-05-06 22:17 44.00192 12.29132 6729 ft 237 kts 122°
2026-05-06 22:17 43.99487 12.31168 6476 ft 236 kts 107°
2026-05-06 22:17 43.99615 12.33443 6237 ft 239 kts 64°
2026-05-06 22:17 44.00731 12.35109 5919 ft 239 kts 26°
2026-05-06 22:18 44.02195 12.36151 5624 ft 240 kts 24°
2026-05-06 22:18 44.03697 12.37207 5327 ft 239 kts 24°
2026-05-06 22:18 44.05157 12.38236 5048 ft 236 kts 22°
2026-05-06 22:18 44.06715 12.38571 4808 ft 221 kts 339°
2026-05-06 22:19 44.07959 12.37462 4549 ft 212 kts 301°
2026-05-06 22:19 44.08756 12.35792 4329 ft 206 kts 298°
2026-05-06 22:19 44.09522 12.34111 4344 ft 203 kts 293°
2026-05-06 22:19 44.10159 12.32362 4351 ft 198 kts 292°
2026-05-06 22:20 44.10772 12.30738 4316 ft 184 kts 292°
2026-05-06 22:20 44.11334 12.29218 4342 ft 170 kts 291°
2026-05-06 22:20 44.11864 12.27780 4448 ft 165 kts 291°
2026-05-06 22:20 44.12402 12.26328 4631 ft 171 kts 291°
2026-05-06 22:21 44.12973 12.24770 4171 ft 186 kts 292°
2026-05-06 22:21 44.13562 12.23176 3594 ft 185 kts 292°
2026-05-06 22:21 44.14143 12.21603 2976 ft 180 kts 292°
2026-05-06 22:21 44.14702 12.20084 2366 ft 178 kts 293°
2026-05-06 22:22 44.15264 12.18560 1757 ft 177 kts 294°
2026-05-06 22:22 44.15799 12.17104 1512 ft 165 kts 293°
2026-05-06 22:22 44.16317 12.15692 1283 ft 158 kts 294°
2026-05-06 22:22 44.16797 12.14393 1079 ft 139 kts 294°
2026-05-06 22:23 44.17211 12.13265 878 ft 127 kts 294°
2026-05-06 22:23 44.17614 12.12165 725 ft 126 kts 294°
2026-05-06 22:23 44.18017 12.11069 568 ft 128 kts 294°
2026-05-06 22:23 44.18422 12.09966 399 ft 129 kts 295°
2026-05-06 22:24 44.18860 12.08862 224 ft 129 kts 294°
2026-05-06 22:24 44.19226 12.07808 97 ft 113 kts 294°
2026-05-06 22:24 44.19505 12.07022 100 ft 60 kts 297°
2026-05-06 22:24 44.19641 12.06654 103 ft 39 kts 296°
2026-05-06 22:25 44.19743 12.06404 104 ft 12 kts 314°
2026-05-06 22:25 44.19733 12.06384 105 ft 7 kts 124°
2026-05-06 22:25 44.19696 12.06491 104 ft 18 kts 115°
2026-05-06 22:25 44.19628 12.06682 103 ft 23 kts 117°
2026-05-06 22:26 44.19656 12.06831 102 ft 13 kts 30°
2026-05-06 22:26 44.19717 12.06879 101 ft 9 kts 52°
2026-05-06 22:26 44.19703 12.06968 100 ft 10 kts 117°
2026-05-06 22:26 44.19676 12.07060 99 ft 7 kts 59°
2026-05-06 22:27 44.19724 12.07078 99 ft 5 kts
2026-05-06 22:27 44.19738 12.07093 99 ft 0 kts 45°
2026-05-06 22:39 44.19739 12.07096 99 ft 1 kts 66°
2026-05-06 22:39 44.19723 12.07107 99 ft 4 kts 194°
2026-05-06 22:39 44.19688 12.07091 99 ft 5 kts 186°
2026-05-06 22:39 44.19633 12.07108 99 ft 9 kts 178°
2026-05-06 22:40 44.19610 12.07106 99 ft 0 kts 196°
2026-05-06 22:40 44.19610 12.07105 99 ft 0 kts 196°
2026-05-06 22:40 44.19608 12.07105 99 ft 0 kts 197°
2026-05-06 22:41 44.19581 12.07087 100 ft 7 kts 206°
2026-05-06 22:41 44.19529 12.06964 101 ft 38 kts 285°
2026-05-06 22:41 44.19757 12.06338 105 ft 104 kts 296°
2026-05-06 22:42 44.20171 12.05209 199 ft 145 kts 296°
2026-05-06 22:42 44.20672 12.03943 594 ft 155 kts 296°
2026-05-06 22:42 44.21082 12.02565 1036 ft 152 kts 271°
2026-05-06 22:42 44.20766 12.01218 1064 ft 151 kts 223°
2026-05-06 22:43 44.19854 12.00626 1219 ft 147 kts 180°
2026-05-06 22:43 44.18877 12.01307 1413 ft 178 kts 131°
2026-05-06 22:43 44.18188 12.02782 1553 ft 186 kts 123°
2026-05-06 22:43 44.17538 12.04378 1380 ft 189 kts 120°
2026-05-06 22:44 44.16950 12.05970 1395 ft 173 kts 118°
2026-05-06 22:44 44.16468 12.07422 1505 ft 155 kts 117°
2026-05-06 22:44 44.16046 12.08777 1409 ft 152 kts 115°
2026-05-06 22:44 44.15826 12.10197 1222 ft 150 kts 82°
2026-05-06 22:45 44.16372 12.11337 1014 ft 138 kts 27°
2026-05-06 22:45 44.17264 12.11536 713 ft 130 kts 341°
2026-05-06 22:45 44.18028 12.10970 514 ft 120 kts 313°
2026-05-06 22:45 44.18447 12.09908 388 ft 127 kts 300°
2026-05-06 22:46 44.18842 12.08851 190 ft 119 kts 300°
2026-05-06 22:46 44.19207 12.07849 96 ft 109 kts 298°
2026-05-06 22:46 44.19606 12.06756 173 ft 142 kts 297°
2026-05-06 22:46 44.20118 12.05528 499 ft 161 kts 300°
2026-05-06 22:47 44.20657 12.04142 1149 ft 160 kts 277°
2026-05-06 22:47 44.20422 12.02720 1770 ft 159 kts 233°
2026-05-06 22:47 44.19487 12.01859 1885 ft 166 kts 191°
2026-05-06 22:47 44.18354 12.02174 1869 ft 178 kts 148°
2026-05-06 22:48 44.17667 12.03635 1545 ft 185 kts 112°
2026-05-06 22:48 44.17256 12.05339 1434 ft 185 kts 110°
2026-05-06 22:48 44.16869 12.06965 1437 ft 170 kts 113°
2026-05-06 22:48 44.16444 12.08499 1303 ft 167 kts 112°
2026-05-06 22:49 44.16100 12.10031 1179 ft 164 kts 93°
2026-05-06 22:49 44.16569 12.11435 886 ft 167 kts 32°
2026-05-06 22:49 44.17610 12.11572 820 ft 150 kts 329°
2026-05-06 22:49 44.18260 12.10565 647 ft 137 kts 291°
2026-05-06 22:50 44.18640 12.09384 350 ft 128 kts 296°
2026-05-06 22:50 44.19029 12.08325 114 ft 118 kts 294°
2026-05-06 22:50 44.19398 12.07309 99 ft 132 kts 298°
2026-05-06 22:50 44.19846 12.06147 506 ft 140 kts 304°
2026-05-06 22:51 44.20708 12.05202 675 ft 171 kts 323°
2026-05-06 22:51 44.21170 12.04041 929 ft 126 kts 251°
2026-05-06 22:51 44.20420 12.03546 964 ft 147 kts 155°
2026-05-06 22:51 44.20002 12.04797 419 ft 159 kts 94°
2026-05-06 22:52 44.19762 12.06282 226 ft 170 kts 114°
2026-05-06 22:52 44.19002 12.07503 548 ft 164 kts 141°
2026-05-06 22:52 44.18236 12.08566 454 ft 155 kts 117°
2026-05-06 22:52 44.18595 12.09761 657 ft 165 kts 349°
2026-05-06 22:53 44.19137 12.08619 302 ft 147 kts 275°
2026-05-06 22:53 44.19398 12.07352 98 ft 126 kts 296°
2026-05-06 22:53 44.19810 12.06242 263 ft 136 kts 297°
2026-05-06 22:53 44.20282 12.05096 688 ft 140 kts 299°
2026-05-06 22:54 44.20732 12.03929 891 ft 133 kts 278°
2026-05-06 22:54 44.20494 12.02544 1019 ft 167 kts 227°
2026-05-06 22:54 44.19510 12.01779 1739 ft 164 kts 197°
2026-05-06 22:54 44.18342 12.02142 1698 ft 182 kts 141°
2026-05-06 22:55 44.17697 12.03699 1326 ft 194 kts 116°
2026-05-06 22:55 44.17041 12.05184 1407 ft 169 kts 142°
2026-05-06 22:55 44.16110 12.06226 1133 ft 167 kts 131°
2026-05-06 22:55 44.15561 12.07515 1190 ft 154 kts 120°
2026-05-06 22:56 44.15083 12.08916 969 ft 165 kts 119°
2026-05-06 22:56 44.14748 12.10410 941 ft 161 kts 81°
2026-05-06 22:56 44.15447 12.11535 815 ft 161 kts 18°
2026-05-06 22:56 44.16451 12.11832 1008 ft 141 kts
2026-05-06 22:57 44.17420 12.11589 822 ft 142 kts 332°
2026-05-06 22:57 44.18136 12.10737 567 ft 136 kts 303°
2026-05-06 22:57 44.18561 12.09623 321 ft 126 kts 295°
2026-05-06 22:57 44.18944 12.08567 150 ft 119 kts 294°
2026-05-06 22:58 44.19307 12.07570 97 ft 111 kts 295°
2026-05-06 22:58 44.19748 12.06372 227 ft 155 kts 297°
2026-05-06 22:58 44.20261 12.05057 828 ft 166 kts 297°
2026-05-06 22:58 44.21010 12.04039 1006 ft 152 kts 346°
2026-05-06 22:59 44.22094 12.04561 1284 ft 185 kts 56°
2026-05-06 22:59 44.22357 12.06149 1255 ft 167 kts 98°
2026-05-06 22:59 44.22182 12.07676 1150 ft 153 kts 107°
2026-05-06 22:59 44.21925 12.09030 1107 ft 136 kts 109°
2026-05-06 23:00 44.21656 12.10263 1074 ft 128 kts 112°
2026-05-06 23:00 44.21367 12.11448 1082 ft 131 kts 111°
2026-05-06 23:00 44.21114 12.12684 1170 ft 133 kts 108°
2026-05-06 23:00 44.20567 12.13626 1206 ft 129 kts 168°
2026-05-06 23:01 44.19753 12.13324 1049 ft 131 kts 229°
2026-05-06 23:01 44.19313 12.12130 943 ft 156 kts 244°
2026-05-06 23:01 44.18945 12.10479 954 ft 202 kts 263°
2026-05-06 23:01 44.19220 12.08193 275 ft 279 kts 288°
2026-05-06 23:02 44.20174 12.05561 236 ft 321 kts 297°
2026-05-06 23:02 44.21069 12.02967 1977 ft 293 kts 279°
2026-05-06 23:02 44.20457 12.00460 2995 ft 285 kts 240°
2026-05-06 23:02 44.20251 11.97734 2927 ft 289 kts 291°
2026-05-06 23:03 44.21597 11.95815 2642 ft 278 kts 333°
2026-05-06 23:03 44.23369 11.96007 1832 ft 267 kts 46°
2026-05-06 23:03 44.23914 11.98250 1378 ft 241 kts 97°
2026-05-06 23:03 44.23705 12.00313 1518 ft 197 kts 122°
2026-05-06 23:04 44.23131 12.01224 1191 ft 188 kts 144°
2026-05-06 23:04 44.22814 12.01560 1029 ft 184 kts 148°
2026-05-06 23:04 44.21806 12.02439 874 ft 160 kts 150°
2026-05-06 23:04 44.20957 12.03335 724 ft 146 kts 133°
2026-05-06 23:05 44.20441 12.04494 452 ft 140 kts 118°
2026-05-06 23:05 44.20000 12.05672 187 ft 129 kts 121°
2026-05-06 23:05 44.19583 12.06810 148 ft 148 kts 118°
2026-05-06 23:05 44.18954 12.08050 415 ft 164 kts 160°
2026-05-06 23:06 44.17885 12.08653 795 ft 180 kts 158°
2026-05-06 23:06 44.16881 12.09685 815 ft 173 kts 121°
2026-05-06 23:06 44.16785 12.11350 783 ft 177 kts 60°
2026-05-06 23:06 44.17773 12.11983 944 ft 178 kts 322°
2026-05-06 23:07 44.18274 12.10583 698 ft 157 kts 288°
2026-05-06 23:07 44.18695 12.09229 314 ft 145 kts 294°
2026-05-06 23:07 44.19117 12.08063 96 ft 102 kts 303°
2026-05-06 23:07 44.19283 12.07641 97 ft 23 kts 306°
2026-05-06 23:08 44.19398 12.07597 97 ft 13 kts 351°
2026-05-06 23:08 44.19471 12.07508 97 ft 14 kts 316°
2026-05-06 23:08 44.19541 12.07412 97 ft 14 kts 314°
2026-05-06 23:08 44.19586 12.07288 98 ft 14 kts 296°
2026-05-06 23:09 44.19634 12.07166 99 ft 14 kts 303°
2026-05-06 23:09 44.19672 12.07065 99 ft 7 kts 321°
2026-05-06 23:09 44.19716 12.07071 100 ft 2 kts 12°
2026-05-06 23:09 44.19735 12.07087 99 ft 3 kts 52°
2026-05-06 23:10 44.19736 12.07089 99 ft 0 kts 52°